TimeCST,TemperatureF,Dew PointF,Humidity,Sea Level PressureIn,VisibilityMPH,Wind Direction,Wind SpeedMPH,Gust SpeedMPH,PrecipitationIn,Events,Conditions,WindDirDegrees,DateUTC
12:15 AM,21.2,17.6,86,29.96,10.0,SW,9.2,-,N/A,,Overcast,230,2013-02-02 06:15:00
12:35 AM,21.2,15.8,80,29.96,10.0,WSW,9.2,16.1,N/A,,Mostly Cloudy,250,2013-02-02 06:35:00
12:55 AM,19.4,14.0,80,29.96,-9999.0,West,9.2,-,N/A,,Partly Cloudy,260,2013-02-02 06:55:00
1:15 AM,17.6,12.2,79,29.97,10.0,West,8.1,-,N/A,,Clear,270,2013-02-02 07:15:00
1:35 AM,17.6,14.0,86,29.98,10.0,WNW,11.5,-,N/A,,Clear,300,2013-02-02 07:35:00
1:55 AM,17.6,14.0,86,29.99,10.0,NW,12.7,-,N/A,,Mostly Cloudy,310,2013-02-02 07:55:00
2:15 AM,19.4,14.0,80,30.00,10.0,NW,15.0,-,N/A,,Overcast,320,2013-02-02 08:15:00
2:35 AM,17.6,14.0,86,30.01,10.0,NW,12.7,-,N/A,,Overcast,320,2013-02-02 08:35:00
2:55 AM,17.6,12.2,79,30.02,10.0,NNW,16.1,-,N/A,,Overcast,330,2013-02-02 08:55:00
3:15 AM,17.6,12.2,79,30.01,10.0,NNW,16.1,-,N/A,,Overcast,330,2013-02-02 09:15:00
3:35 AM,17.6,10.4,73,30.02,10.0,NNW,19.6,-,N/A,,Overcast,340,2013-02-02 09:35:00
3:55 AM,15.8,12.2,86,30.02,10.0,NNW,13.8,19.6,N/A,Snow,Light Snow,330,2013-02-02 09:55:00
4:15 AM,15.8,10.4,79,30.03,10.0,NNW,15.0,23.0,N/A,,Overcast,330,2013-02-02 10:15:00
4:35 AM,14.0,8.6,79,30.05,10.0,NNW,15.0,21.9,N/A,,Mostly Cloudy,330,2013-02-02 10:35:00
4:55 AM,14.0,8.6,79,30.05,10.0,NNW,13.8,19.6,N/A,,Overcast,340,2013-02-02 10:55:00
5:15 AM,14.0,8.6,79,30.06,10.0,NNW,15.0,-,N/A,,Mostly Cloudy,330,2013-02-02 11:15:00
5:35 AM,12.2,6.8,79,30.08,10.0,NNW,11.5,18.4,N/A,,Mostly Cloudy,340,2013-02-02 11:35:00
5:55 AM,12.2,5.0,73,30.09,10.0,NNW,12.7,19.6,N/A,,Mostly Cloudy,340,2013-02-02 11:55:00
6:15 AM,10.4,5.0,79,30.10,10.0,NNW,15.0,21.9,N/A,,Scattered Clouds,330,2013-02-02 12:15:00
6:35 AM,10.4,3.2,73,30.11,10.0,NNW,13.8,19.6,N/A,,Partly Cloudy,330,2013-02-02 12:35:00
6:55 AM,8.6,3.2,79,30.12,10.0,NW,12.7,-,N/A,Snow,Light Snow,320,2013-02-02 12:55:00
7:15 AM,8.6,3.2,79,30.12,10.0,NNW,11.5,-,N/A,,Overcast,330,2013-02-02 13:15:00
7:35 AM,6.8,1.4,79,30.13,10.0,NNW,13.8,-,N/A,,Overcast,330,2013-02-02 13:35:00
7:55 AM,6.8,1.4,79,30.14,10.0,NW,15.0,-,N/A,,Scattered Clouds,320,2013-02-02 13:55:00
8:15 AM,6.8,1.4,79,30.14,10.0,NW,18.4,-,N/A,,Clear,320,2013-02-02 14:15:00
8:35 AM,6.8,1.4,79,30.14,10.0,NNW,15.0,-,N/A,,Scattered Clouds,340,2013-02-02 14:35:00
8:55 AM,6.8,-0.4,72,30.15,10.0,NNW,15.0,-,N/A,,Scattered Clouds,330,2013-02-02 14:55:00
9:15 AM,6.8,-0.4,72,30.15,10.0,NNW,12.7,-,N/A,,Partly Cloudy,340,2013-02-02 15:15:00
9:35 AM,6.8,1.4,79,30.15,9.0,NNW,13.8,-,N/A,,Partly Cloudy,330,2013-02-02 15:35:00
9:55 AM,8.6,1.4,73,30.15,10.0,NNW,11.5,-,N/A,,Clear,340,2013-02-02 15:55:00
10:15 AM,8.6,1.4,73,30.15,10.0,NW,12.7,-,N/A,,Clear,320,2013-02-02 16:15:00
10:35 AM,8.6,1.4,73,30.16,10.0,NW,11.5,-,N/A,,Clear,320,2013-02-02 16:35:00
10:55 AM,10.4,1.4,67,30.16,10.0,NW,12.7,-,N/A,,Clear,320,2013-02-02 16:55:00
11:15 AM,12.2,3.2,67,30.15,10.0,NNW,10.4,-,N/A,,Clear,330,2013-02-02 17:15:00
11:35 AM,12.2,3.2,67,30.14,10.0,NW,9.2,-,N/A,,Clear,320,2013-02-02 17:35:00
11:55 AM,12.2,3.2,67,30.14,10.0,NW,9.2,-,N/A,,Scattered Clouds,320,2013-02-02 17:55:00
12:15 PM,14.0,5.0,67,30.14,10.0,WNW,8.1,-,N/A,,Scattered Clouds,300,2013-02-02 18:15:00
12:35 PM,14.0,5.0,67,30.13,10.0,NW,10.4,-,N/A,,Scattered Clouds,310,2013-02-02 18:35:00
12:55 PM,14.0,5.0,67,30.13,10.0,NW,9.2,-,N/A,,Mostly Cloudy,320,2013-02-02 18:55:00
1:15 PM,15.8,5.0,62,30.12,10.0,WNW,8.1,-,N/A,,Partly Cloudy,300,2013-02-02 19:15:00
1:35 PM,15.8,5.0,62,30.11,10.0,NW,8.1,-,N/A,,Scattered Clouds,320,2013-02-02 19:35:00
1:55 PM,15.8,5.0,62,30.11,10.0,NW,9.2,-,N/A,,Mostly Cloudy,310,2013-02-02 19:55:00
2:15 PM,15.8,5.0,62,30.11,10.0,NW,8.1,-,N/A,,Scattered Clouds,310,2013-02-02 20:15:00
2:35 PM,15.8,6.8,68,30.10,7.0,NW,6.9,-,N/A,Snow,Light Snow,310,2013-02-02 20:35:00
2:55 PM,17.6,6.8,63,30.08,5.0,WNW,3.5,-,N/A,Snow,Light Snow,290,2013-02-02 20:55:00
3:15 PM,17.6,8.6,68,30.08,9.0,West,4.6,-,N/A,Snow,Light Snow,260,2013-02-02 21:15:00
3:35 PM,17.6,8.6,68,30.08,10.0,WSW,3.5,-,N/A,,Mostly Cloudy,250,2013-02-02 21:35:00
3:55 PM,17.6,8.6,68,30.07,10.0,SW,5.8,-,N/A,,Overcast,230,2013-02-02 21:55:00
4:15 PM,17.6,8.6,68,30.06,10.0,SW,8.1,-,N/A,,Overcast,230,2013-02-02 22:15:00
4:35 PM,17.6,10.4,73,30.06,10.0,SW,8.1,-,N/A,,Overcast,220,2013-02-02 22:35:00
4:55 PM,17.6,10.4,73,30.05,10.0,SSW,6.9,-,N/A,,Overcast,210,2013-02-02 22:55:00
5:15 PM,17.6,10.4,73,30.04,9.0,SSW,8.1,-,N/A,Snow,Light Snow,200,2013-02-02 23:15:00
5:35 PM,17.6,12.2,79,30.04,3.0,SSW,9.2,-,N/A,Snow,Light Snow,200,2013-02-02 23:35:00
5:55 PM,17.6,12.2,79,30.03,2.0,SSW,9.2,-,N/A,Snow,Light Snow,200,2013-02-02 23:55:00
6:15 PM,17.6,14.0,86,30.02,2.5,South,10.4,-,N/A,Snow,Light Snow,190,2013-02-03 00:15:00
6:35 PM,17.6,14.0,86,30.00,7.0,South,12.7,-,N/A,,Overcast,180,2013-02-03 00:35:00
6:55 PM,17.6,14.0,86,30.00,7.0,South,10.4,-,N/A,,Overcast,180,2013-02-03 00:55:00
7:15 PM,17.6,14.0,86,30.00,7.0,South,11.5,-,N/A,,Overcast,180,2013-02-03 01:15:00
7:35 PM,17.6,14.0,86,29.99,7.0,South,12.7,-,N/A,,Overcast,190,2013-02-03 01:35:00
7:55 PM,17.6,15.8,93,29.98,5.0,South,12.7,-,N/A,,Overcast,190,2013-02-03 01:55:00
8:15 PM,17.6,15.8,93,29.97,6.0,South,15.0,-,N/A,Snow,Light Snow,190,2013-02-03 02:15:00
8:35 PM,19.4,15.8,86,29.96,6.0,SSW,13.8,-,N/A,,Overcast,200,2013-02-03 02:35:00
8:55 PM,19.4,15.8,86,29.95,4.0,SSW,11.5,-,N/A,Snow,Light Snow,200,2013-02-03 02:55:00
9:15 PM,19.4,17.6,93,29.95,3.0,SSW,8.1,13.8,N/A,Snow,Light Snow,210,2013-02-03 03:15:00
9:35 PM,21.2,17.6,86,29.94,5.0,SSW,10.4,-,N/A,Snow,Light Snow,210,2013-02-03 03:35:00
9:55 PM,23.0,19.4,86,29.93,10.0,SW,11.5,-,N/A,,Overcast,220,2013-02-03 03:55:00
10:15 PM,23.0,21.2,93,29.93,10.0,SW,10.4,-,N/A,,Overcast,230,2013-02-03 04:15:00
10:35 PM,24.8,23.0,93,29.93,9.0,WSW,11.5,-,N/A,,Overcast,250,2013-02-03 04:35:00
10:55 PM,28.4,24.8,86,29.94,10.0,WNW,20.7,31.1,N/A,,Overcast,300,2013-02-03 04:55:00
11:15 PM,30.2,24.8,80,29.94,6.0,NW,27.6,35.7,N/A,,Freezing Rain,320,2013-02-03 05:15:00
11:35 PM,24.8,19.4,80,29.95,5.0,NW,31.1,40.3,N/A,,Freezing Rain,320,2013-02-03 05:35:00
11:55 PM,24.8,17.6,74,29.96,7.0,NW,26.5,39.1,N/A,,Freezing Rain,320,2013-02-03 05:55:00